Radiation Dose at Monitoring Post of Fukushima Daini Nuclear Power Station
Date,Time,MP-1(microSv/h),MP-2(microSv/h),MP-3(microSv/h),MP-4(microSv/h),MP-5(microSv/h),MP-6(microSv/h),MP-7(microSv/h),Wind Direction,Wind Velocity(m/s),Rain
2017/01/30,00:00,0.389,0.231,0.398,0.373,0.338,0.192,0.164,south-southwest,4.3,No
2017/01/30,00:10,0.387,0.231,0.399,0.371,0.336,0.192,0.165,south-southwest,4.8,No
2017/01/30,00:20,0.385,0.231,0.399,0.370,0.338,0.192,0.165,south-southwest,3.8,No
2017/01/30,00:30,0.387,0.232,0.400,0.373,0.338,0.192,0.165,south-southwest,4.2,No
2017/01/30,00:40,0.387,0.232,0.400,0.370,0.335,0.192,0.164,south-southwest,5.2,No
2017/01/30,00:50,0.386,0.232,0.397,0.372,0.337,0.192,0.164,south-southwest,6.4,No
2017/01/30,01:00,0.389,0.231,0.400,0.373,0.336,0.192,0.165,south-southwest,6.4,No
2017/01/30,01:10,0.387,0.231,0.401,0.370,0.337,0.192,0.165,southwest,7.5,No
2017/01/30,01:20,0.388,0.232,0.398,0.371,0.337,0.192,0.165,southwest,6.4,No
2017/01/30,01:30,0.389,0.231,0.400,0.371,0.337,0.192,0.164,southwest,5.4,No
2017/01/30,01:40,0.388,0.232,0.399,0.370,0.336,0.192,0.164,southwest,3.9,No
2017/01/30,01:50,0.387,0.233,0.399,0.372,0.336,0.192,0.165,west-southwest,3.1,No
2017/01/30,02:00,0.389,0.232,0.400,0.372,0.340,0.192,0.166,southwest,4.1,No
2017/01/30,02:10,0.388,0.232,0.399,0.370,0.336,0.192,0.165,south-southwest,3.8,No
2017/01/30,02:20,0.386,0.232,0.397,0.373,0.336,0.193,0.165,southwest,4.3,No
2017/01/30,02:30,0.389,0.232,0.402,0.373,0.339,0.192,0.165,southwest,4.9,No
2017/01/30,02:40,0.388,0.231,0.399,0.370,0.339,0.192,0.165,southwest,4.6,No
2017/01/30,02:50,0.387,0.233,0.401,0.371,0.337,0.191,0.165,southwest,3.9,No
2017/01/30,03:00,0.389,0.233,0.401,0.371,0.337,0.191,0.165,west-southwest,3.3,No
2017/01/30,03:10,0.389,0.232,0.401,0.370,0.336,0.193,0.164,west-southwest,2.7,No
2017/01/30,03:20,0.388,0.231,0.398,0.373,0.337,0.192,0.165,west-southwest,2.2,No
2017/01/30,03:30,0.388,0.231,0.401,0.371,0.336,0.193,0.165,west,2.3,No
2017/01/30,03:40,0.388,0.230,0.399,0.370,0.337,0.192,0.165,southwest,2.8,No
2017/01/30,03:50,0.387,0.230,0.398,0.373,0.338,0.192,0.165,southwest,4.3,No
2017/01/30,04:00,0.389,0.232,0.402,0.371,0.338,0.193,0.165,southwest,5.1,No
2017/01/30,04:10,0.388,0.232,0.400,0.372,0.336,0.193,0.165,south-southwest,6.0,No
2017/01/30,04:20,0.388,0.232,0.399,0.373,0.336,0.193,0.166,south-southwest,6.2,No
2017/01/30,04:30,0.387,0.233,0.402,0.373,0.337,0.192,0.166,south-southwest,5.8,No
2017/01/30,04:40,0.390,0.231,0.400,0.372,0.337,0.193,0.166,south-southwest,6.0,No
2017/01/30,04:50,0.388,0.232,0.399,0.373,0.336,0.192,0.165,south-southwest,7.3,No
2017/01/30,05:00,0.388,0.231,0.400,0.372,0.337,0.192,0.164,south-southwest,5.6,No
2017/01/30,05:10,0.388,0.232,0.399,0.371,0.337,0.192,0.165,southwest,4.2,No
2017/01/30,05:20,0.388,0.232,0.399,0.372,0.337,0.193,0.164,west,2.1,No
2017/01/30,05:30,0.387,0.232,0.401,0.372,0.338,0.193,0.164,west,0.8,No
2017/01/30,05:40,0.388,0.233,0.401,0.371,0.336,0.192,0.166,north-northeast,2.3,No
2017/01/30,05:50,0.389,0.232,0.399,0.373,0.336,0.193,0.165,north-northeast,2.3,No
2017/01/30,06:00,0.388,0.232,0.401,0.372,0.339,0.192,0.165,northeast,2.5,No
2017/01/30,06:10,0.389,0.232,0.401,0.372,0.337,0.193,0.165,north-northeast,3.6,No
2017/01/30,06:20,0.390,0.233,0.399,0.373,0.337,0.194,0.165,north,3.8,No
2017/01/30,06:30,0.390,0.233,0.401,0.374,0.339,0.193,0.165,north,6.1,No
2017/01/30,06:40,0.389,0.232,0.403,0.371,0.338,0.193,0.165,north,6.0,No
2017/01/30,06:50,0.389,0.234,0.401,0.371,0.339,0.193,0.166,north,7.8,No
2017/01/30,07:00,0.390,0.233,0.401,0.374,0.339,0.193,0.166,north,7.3,No
2017/01/30,07:10,0.389,0.231,0.403,0.372,0.337,0.193,0.166,north,7.5,No
2017/01/30,07:20,0.388,0.232,0.401,0.372,0.338,0.194,0.165,north,8.0,No
2017/01/30,07:30,0.388,0.232,0.398,0.373,0.337,0.194,0.165,north,8.3,No
2017/01/30,07:40,0.390,0.232,0.400,0.371,0.337,0.194,0.165,north,8.5,No
2017/01/30,07:50,0.389,0.231,0.402,0.370,0.337,0.193,0.166,north,6.4,No
2017/01/30,08:00,0.389,0.231,0.401,0.370,0.337,0.192,0.165,north,7.8,No
2017/01/30,08:10,0.390,0.232,0.398,0.371,0.336,0.192,0.165,north,6.8,No
2017/01/30,08:20,0.388,0.232,0.402,0.370,0.338,0.193,0.165,north,7.0,No
2017/01/30,08:30,0.387,0.232,0.400,0.373,0.337,0.192,0.165,north,6.8,No
2017/01/30,08:40,0.389,0.232,0.400,0.370,0.336,0.193,0.165,north,3.8,No
2017/01/30,08:50,0.388,0.232,0.401,0.371,0.338,0.192,0.164,north,4.5,No
2017/01/30,09:00,0.388,0.230,0.399,0.373,0.336,0.193,0.165,north,4.4,No
2017/01/30,09:10,0.389,0.230,0.401,0.369,0.335,0.193,0.165,north,3.0,No
2017/01/30,09:20,0.389,-,0.400,0.371,0.337,0.193,0.165,north,3.9,No
2017/01/30,09:30,0.387,-,0.400,0.369,0.337,0.193,0.164,north,4.7,No
2017/01/30,09:40,0.389,-,0.399,0.371,0.337,0.193,0.164,north,4.2,No
2017/01/30,09:50,0.387,-,0.402,0.371,0.338,0.193,0.164,north,3.5,No
2017/01/30,10:00,0.387,-,0.398,0.371,0.337,0.192,0.164,north,2.8,No
2017/01/30,10:10,0.387,-,0.400,0.373,0.337,0.193,0.165,north,3.1,No
2017/01/30,10:20,0.386,-,0.402,0.372,0.339,0.193,0.164,north,3.2,No
2017/01/30,10:30,0.388,-,0.400,0.373,0.338,0.192,0.165,north,2.8,No
2017/01/30,10:40,0.388,-,0.401,0.373,0.337,0.192,0.166,north-northwest,1.0,No
2017/01/30,10:50,0.388,-,0.400,0.373,0.337,0.193,0.165,north,1.9,No
2017/01/30,11:00,0.389,-,0.398,0.372,0.336,0.193,0.166,north,2.2,No
2017/01/30,11:10,0.390,-,0.400,0.371,0.337,0.193,0.165,north-northeast,1.6,No
2017/01/30,11:20,0.388,-,0.399,0.372,0.339,0.192,0.166,north-northeast,2.4,No
2017/01/30,11:30,0.386,-,0.397,0.370,0.338,0.192,0.165,north-northeast,3.7,No
2017/01/30,11:40,0.389,-,0.401,0.371,0.337,0.193,0.165,northeast,4.5,No
2017/01/30,11:50,0.387,-,0.399,0.374,0.338,0.192,0.165,north-northeast,3.8,No
2017/01/30,12:00,0.386,-,0.400,0.372,0.336,0.193,0.165,east-northeast,3.2,No
2017/01/30,12:10,0.387,-,0.400,0.373,0.337,0.193,0.164,northeast,4.6,No
2017/01/30,12:20,0.386,-,0.399,0.372,0.339,0.192,0.166,north-northwest,4.3,No
2017/01/30,12:30,0.388,-,0.400,0.370,0.336,0.193,0.165,west-northwest,9.7,No
2017/01/30,12:40,0.385,-,0.397,0.371,0.337,0.192,0.165,west-northwest,11.5,No
2017/01/30,12:50,0.386,-,0.399,0.370,0.335,0.193,0.164,west-northwest,10.3,No
2017/01/30,13:00,0.387,-,0.398,0.371,0.336,0.192,0.164,west-northwest,12.8,No
2017/01/30,13:10,0.386,-,0.398,0.369,0.336,0.193,0.165,west-northwest,11.3,No
2017/01/30,13:20,0.388,-,0.398,0.370,0.335,0.193,0.165,west-northwest,12.8,No
2017/01/30,13:30,0.386,-,0.400,0.368,0.337,0.192,0.165,west-northwest,13.8,No
2017/01/30,13:40,0.387,-,0.400,0.371,0.336,0.193,0.164,west-northwest,12.7,No
2017/01/30,13:50,0.389,-,0.399,0.370,0.336,0.192,0.164,west-northwest,13.1,No
2017/01/30,14:00,0.386,-,0.403,0.372,0.334,0.194,0.164,west,14.1,No
2017/01/30,14:10,0.387,-,0.399,0.370,0.337,0.194,0.164,west-northwest,9.9,No
2017/01/30,14:20,0.389,-,0.403,0.372,0.336,0.192,0.165,west-northwest,12.6,No
2017/01/30,14:30,0.388,-,0.401,0.371,0.338,0.193,0.166,west-northwest,11.0,No
2017/01/30,14:40,0.389,-,0.400,0.374,0.336,0.193,0.165,west-northwest,12.8,No
2017/01/30,14:50,0.388,-,0.403,0.371,0.337,0.192,0.165,west,10.4,No
2017/01/30,15:00,0.388,-,0.400,0.374,0.340,0.192,0.165,west,11.5,No
2017/01/30,15:10,0.389,-,0.403,0.371,0.337,0.192,0.164,west-northwest,11.6,No
2017/01/30,15:20,0.389,-,0.402,0.374,0.338,0.193,0.166,west-northwest,12.6,No
2017/01/30,15:30,0.387,-,0.400,0.373,0.337,0.192,0.165,west-northwest,14.6,No
2017/01/30,15:40,0.389,-,0.403,0.372,0.336,0.194,0.166,west-northwest,12.7,No
2017/01/30,15:50,0.392,-,0.402,0.374,0.338,0.193,0.166,west-northwest,11.3,No
2017/01/30,16:00,0.388,-,0.402,0.372,0.338,0.194,0.166,west,14.8,No
2017/01/30,16:10,0.388,-,0.403,0.372,0.339,0.192,0.164,west-northwest,14.6,No
2017/01/30,16:20,0.389,-,0.399,0.373,0.339,0.193,0.165,west,12.5,No
2017/01/30,16:30,0.389,-,0.401,0.371,0.337,0.192,0.166,west-northwest,12.4,No
2017/01/30,16:40,0.390,-,0.402,0.372,0.337,0.192,0.166,west-northwest,12.3,No
2017/01/30,16:50,0.391,-,0.400,0.374,0.336,0.192,0.166,west,16.5,No
2017/01/30,17:00,0.388,-,0.400,0.371,0.339,0.193,0.165,west-northwest,11.6,No
2017/01/30,17:10,0.387,-,0.403,0.372,0.338,0.192,0.165,west,13.5,No
2017/01/30,17:20,0.388,-,0.401,0.373,0.339,0.192,0.165,west-northwest,14.6,No
2017/01/30,17:30,0.389,-,0.400,0.372,0.340,0.193,0.165,west-northwest,12.9,Yes
2017/01/30,17:40,0.390,0.231,0.402,0.373,0.339,0.193,0.165,west-northwest,10.9,Yes
2017/01/30,17:50,0.389,0.233,0.402,0.373,0.339,0.192,0.165,west-northwest,7.9,No
2017/01/30,18:00,0.389,0.233,0.402,0.372,0.339,0.192,0.165,northwest,6.7,No
2017/01/30,18:10,0.391,0.233,0.403,0.375,0.339,0.193,0.166,northwest,5.1,No
2017/01/30,18:20,0.390,0.233,0.402,0.373,0.338,0.193,0.165,north-northwest,5.8,No
2017/01/30,18:30,0.389,0.231,0.400,0.373,0.337,0.193,0.164,north-northwest,5.6,No
2017/01/30,18:40,0.389,0.233,0.401,0.371,0.339,0.193,0.165,north-northwest,5.0,No
2017/01/30,18:50,0.390,0.232,0.400,0.373,0.338,0.192,0.165,north-northwest,3.3,No
2017/01/30,19:00,0.389,0.232,0.401,0.372,0.336,0.193,0.165,north-northwest,5.2,No
2017/01/30,19:10,0.390,0.233,0.404,0.372,0.337,0.192,0.166,north-northwest,6.9,No
2017/01/30,19:20,0.390,0.232,0.404,0.371,0.336,0.193,0.165,north-northwest,5.3,No
2017/01/30,19:30,0.389,0.232,0.401,0.374,0.338,0.191,0.165,north,3.4,No
2017/01/30,19:40,0.388,0.232,0.401,0.371,0.337,0.192,0.165,north,2.8,No
2017/01/30,19:50,0.388,0.233,0.402,0.373,0.338,0.193,0.165,north,4.2,Yes
2017/01/30,20:00,0.390,0.232,0.402,0.371,0.336,0.192,0.165,north,6.0,No
2017/01/30,20:10,0.387,0.232,0.400,0.371,0.338,0.192,0.165,north-northwest,7.4,No
2017/01/30,20:20,0.388,0.233,0.404,0.372,0.337,0.193,0.165,north,9.5,No
2017/01/30,20:30,0.390,0.233,0.401,0.373,0.338,0.193,0.165,north-northwest,7.8,No
2017/01/30,20:40,0.391,0.233,0.401,0.373,0.338,0.193,0.165,north-northwest,7.3,No
2017/01/30,20:50,0.388,0.234,0.402,0.374,0.336,0.193,0.165,north-northwest,7.6,No
2017/01/30,21:00,0.388,0.231,0.403,0.374,0.339,0.193,0.165,north-northwest,4.9,Yes
2017/01/30,21:10,0.390,0.232,0.401,0.374,0.338,0.194,0.166,north-northwest,6.6,No
2017/01/30,21:20,0.390,0.232,0.401,0.372,0.337,0.193,0.166,north-northwest,8.4,Yes
2017/01/30,21:30,0.389,0.233,0.403,0.371,0.339,0.194,0.166,north-northwest,5.8,Yes
2017/01/30,21:40,0.389,0.232,0.403,0.373,0.340,0.194,0.167,north,7.6,No
2017/01/30,21:50,0.391,0.233,0.402,0.371,0.339,0.193,0.165,north-northwest,5.9,No
2017/01/30,22:00,0.389,0.233,0.402,0.374,0.338,0.193,0.166,north,4.9,No
2017/01/30,22:10,0.388,0.232,0.402,0.374,0.336,0.193,0.166,north,7.0,No
2017/01/30,22:20,0.389,0.233,0.402,0.374,0.337,0.193,0.165,north,7.2,No
2017/01/30,22:30,0.392,0.233,0.403,0.372,0.337,0.192,0.166,north-northwest,6.1,Yes
2017/01/30,22:40,0.391,0.233,0.400,0.373,0.337,0.194,0.166,north,4.8,Yes
2017/01/30,22:50,0.389,0.233,0.401,0.373,0.338,0.194,0.166,north,7.7,Yes
2017/01/30,23:00,0.390,0.233,0.402,0.373,0.337,0.195,0.166,north-northwest,7.6,Yes
2017/01/30,23:10,0.391,0.233,0.401,0.373,0.338,0.193,0.166,north,7.0,Yes
2017/01/30,23:20,0.391,0.233,0.403,0.373,0.337,0.195,0.167,north,8.6,Yes
2017/01/30,23:30,0.390,0.234,0.403,0.374,0.336,0.195,0.167,north,7.5,Yes
2017/01/30,23:40,0.390,0.233,0.403,0.373,0.338,0.194,0.167,north,7.3,No
2017/01/30,23:50,0.392,0.233,0.402,0.374,0.336,0.194,0.166,north,7.5,No
